Regional Weather Roundup
Issued by NWS Wakefield, VA

Home | Current Version | Previous Version | Text Only | Print | Product List | Glossary Off
Versions: 1 2 3 4 5 6 7 8 9 10 11 12 13 14 15 16 17 18 19 20 21 22 23 24 25 26 27 28 29 30 31 32 33 34 35 36 37 38 39 40 41 42 43 44 45 46 47 48 49 50

000
ASUS41 KAKQ 301314
RWRAKQ

REGIONAL WEATHER ROUNDUP
NATIONAL WEATHER SERVICE WAKEFIELD VA
900 AM EDT MON MAR 30 2015

Note: "fair" indicates few or no clouds below 12,000 feet with no
significant weather and/or obstructions to visibility. * = Denotes
station may not report precipitation (e.g., rain,snow,etc.),
thunder or fog.

VAZ042-051-052>054-056-301400-
NORTHERN VIRGINIA

CITY           SKY/WX    TMP DP  RH WIND       PRES   REMARKS
WASH NATIONAL  CLOUDY    48  23  37 SW10G17   29.93S
DULLES         CLOUDY    45  21  38 SW12      29.91S
FORT BELVOIR   CLOUDY    47  20  34 VRB7      29.93R
QUANTICO       CLOUDY    48  20  32 SW10G20   29.95S
FREDERICKSBRG* CLOUDY    48  23  37 SW15      29.94F
STAFFORD*      CLOUDY    47  18  31 SW10      29.98R
WARRENTON      CLOUDY    48  29  48 SW8       29.92S
CULPEPER*      CLOUDY    48 N/A N/A SW9       29.93S
MANASSAS*      CLOUDY    46  23  39 S6        29.93S
LEESBURG*      CLOUDY    45  27  49 SW6       29.91F
WINCHESTER     CLOUDY    46  14  27 SW8       29.88S
FRONT ROYAL*   CLOUDY    45  23  42 S5        29.88S
LURAY*         CLOUDY    48  32  53 SW8       29.89S
$$

VAZ048-049-060>072-079>083-301400-
CENTRAL AND SOUTH CENTRAL VIRGINIA

CITY           SKY/WX    TMP DP  RH WIND       PRES   REMARKS
RICHMOND       LGT RAIN  43  30  60 S9        30.00S
CHESTERFIELD*  NOT AVBL
PETERSBURG*    LGT RAIN  46  24  42 SW6       30.02F
HANOVER        CLOUDY    44  26  49 S10       30.00S
TAPPAHANNOCK*  LGT RAIN  41  28  60 S7        30.00S
QUINTON*       CLOUDY    43  28  56 SW5       30.01S
CHARLOTTSVILLE CLOUDY    46  23  40 S14       29.93R
GORDONSVILLE*  PTSUNNY   46  23  41 SW10      29.94S
ORANGE*        CLOUDY    46  23  39 S8G16     29.95S
LOUISA*        CLOUDY    46  23  39 S7        29.94S
BUMPASS*       FAIR      46  21  38 SW9       29.96F
FARMVILLE*     CLOUDY    47  25  41 SW13      29.98S
CREWE*         CLOUDY    46  21  37 MISG      30.00S
FORT PICKETT*  CLOUDY    44  24  44 SW13G18   30.01R
CHASE CITY*    CLOUDY    46  29  49 SW7       30.03R
CLARKSVILLE*   CLOUDY    43  30  61 SW9G16    30.04R
SOUTH HILL*    CLOUDY    43  28  54 S10       30.09S
LAWRENCEVILLE* CLOUDY    44  28  52 SW10G18   30.03F
EMPORIA*       CLOUDY    45  28  53 S8        30.06F
$$

VAZ088>098-301400-
SOUTHEAST VIRGINIA

CITY           SKY/WX    TMP DP  RH WIND       PRES   REMARKS
NORFOLK        CLOUDY    46  27  47 SW18      30.03F
VIRGINIA BEACH LGT RAIN  47  28  47 SW15G23   30.04F
NORFOLK NAVAL  NOT AVBL
WEST POINT*    CLOUDY    44  30  58 S6        30.04S
SALUDA*        CLOUDY    40  31  68 SW7       30.02R
NEWPORT NEWS   LGT RAIN  46  32  58 SW10      30.04S
LANGLEY AFB    LGT RAIN  43  31  63 SW18G25   30.03S
FORT EUSTIS    DRIZZLE   44  31  62 VRB6      30.01F
WILLIAMSBURG*  CLOUDY    46  30  53 SW8       30.04S
HR EXEC AP*    PTSUNNY   45  28  53 SW14G21   30.06S
FRANKLIN*      CLOUDY    45  29  54 SW12G17   30.06S
WAKEFIELD      NOT AVBL
$$

VAZ020-022-025-037-045-301400-
WEST CENTRAL AND SOUTHWEST VIRGINIA

CITY           SKY/WX    TMP DP  RH WIND       PRES   REMARKS
STAUNTON*      CLOUDY    47  36  63 SW12      29.93S
WAYNESBORO*    CLOUDY    45  33  63 SW6       29.92S
HOT SPRINGS VA HVY SNOW  36  36 100 W20G26    29.87R VSB<1/4
LYNCHBURG      CLOUDY    44  25  47 S15G24    29.99R
DANVILLE       CLOUDY    45  27  49 SW12      30.04S
SOUTH BOSTON*  CLOUDY    44  27  51 SW10G17   30.04R
MARTINSVILLE   CLOUDY    44  24  46 SW3       30.06S
ROANOKE        CLOUDY    48  36  63 SW9       30.00S
BLACKSBURG     CLOUDY    42  35  76 W7        30.01S
DUBLIN*        CLOUDY    43  39  84 SW10      30.01R
MARION*        CLOUDY    40  38  91 W14G23    30.03R FOG
HILLSVILLE*    CLOUDY    41  38  89 SW6       30.01R
RICHLANDS*     CLOUDY    41  25  53 W10       30.03R HAZE
WISE*          CLOUDY    43  43 100 W10G25    30.05R FOG
ABINGDON*      CLOUDY    42  40  94 W6        30.06R
$$

MDZ021>025-VAZ099-100-301400-
SOUTHERN MARYLAND AND THE DELMARVA PENINSULA

CITY           SKY/WX    TMP DP  RH WIND       PRES   REMARKS
PATUXENT RIVER CLOUDY    43  24  47 SW18G26   29.95F
BAY BRIDGE APT   N/A     43  27  52 S9G18     29.93F
LEONARDTOWN    CLOUDY    43  25  49 SW12      29.97S
DOVER          CLOUDY    39  36  87 S15       29.93S
GEORGETOWN     CLOUDY    39  33  79 SW13      29.97F
EASTON         NOT AVBL
CAMBRIDGE      CLOUDY    43  30  61 S9        29.95F
SALISBURY      LGT RAIN  38  34  85 S13       29.98F
OCEAN CITY     LGT RAIN  40  32  73 SW12      30.00S
WALLOPS ISLAND LGT RAIN  39  32  76 SW9       30.02S
ACCOMACK*      LGT RAIN  41  30  65 SW10      30.02F
$$

NCZ012>017-030>032-301400-
NORTH CENTRAL AND EASTERN NORTH CAROLINA

CITY           SKY/WX    TMP DP  RH WIND       PRES   REMARKS
ROANOKE RAPIDS CLOUDY    45  32  61 SW15      30.07S
RALEIGH        LGT RAIN  44  31  60 SW18      30.11R
ELIZABETH CITY CLOUDY    45  31  58 SW17G29   30.09F
AHOSKIE*       CLOUDY    45  31  59 SW5       30.08S
EDENTON*       CLOUDY    46  33  61 SW13G18   30.11F
CURRITUCK*     CLOUDY    46  28  49 SW12G20   30.09F
KILL DEVIL HLS CLOUDY    46  34  64 SW8G17    30.10F
MANTEO         CLOUDY    46  35  64 SW16      30.12F
CAPE HATTERAS  CLOUDY    53  34  48 SW20G29   30.16S
TARBORO*       CLOUDY    46  32  57 SW7G17    30.11F
GOLDSBORO      CLOUDY    47  41  82 SW9       30.11F
WASHINGTON     PTSUNNY   46  31  57 SW12G18   30.13F
GREENVILLE     PTSUNNY   45  32  61 SW10G16   30.13F
NEW BERN       CLOUDY    47  33  58 SW6       30.16F
WILMINGTON     PTSUNNY   52  40  63 SW13      30.16F
$$

VAZ048-301400-
ELSEWHERE

CITY           SKY/WX    TMP DP  RH WIND       PRES   REMARKS
HARRISBURG PA  CLOUDY    41  22  46 SW9       29.87S
BALTIMORE      CLOUDY    43  24  47 SW5       29.91S
ANNAPOLIS      CLOUDY    43  24  47 S9        29.93S
ANDREWS AFB    CLOUDY    44  22  40 SW13      29.91S
PHILADELPHIA   CLOUDY    38  32  79 S15       29.92F
HENDERSON NC   RAIN      40  31  70 SW14      30.06R
GREENSBORO     LGT RAIN  40  33  76 SW12      30.05S
ROCKY MOUNT    CLOUDY    48  33  56 SW13      30.10F
$$

VAZ100-301400-
MARINE

STATION/POSITION TIME  TEMP    WIND        PRES    WAVE   SWELL
                       AIR SEA DIR/SP/G            HT/PER HT/PER
                 (UTC) (F)     (DEG/KT/KT) (MB)    (FT/S) (FT/S)
BRANDYWINE LGT   1200   38 39  230/ 17/ 18 1014.7F
CAPE MAY NJ      1200   39 42  230/ 12/ 14 1014.5F
LEWES DE         1200   38 40  230/  7/ 11 1014.7F
15NM E FENWICK I 1250   40 40              1014.8S   6/ 6
OCEAN-CITY-INLET 1200   41 40  230/ 18/ 22 1015.3F
WACHAPREAGUE VA  1200   44 42  240/  8/ 12 1017.0R
THOMAS POINT MD  1300                        N/A
COVE POINT MD    1200   41     210/ 15/ 17 1014.6F
SOLOMONS ISLAND  1200      43                N/A
BISHOPS HEAD MD  1200          190/ 10/ 11 1015.1F
PINEY POINT MD   1212          220/ 12/ 14   N/A
CAMBRIDGE MD     1200   40 43  190/  6/ 10 1014.7F
LEWISETTA VA     1200   43 42              1015.2F
RAPPAHANNOCK LGT 1200          210/ 16/ 18 1017.4R
STINGRAY PT      1300   43 43  230/ 12/ 14   N/A     2/ 2
YORK RVR RNG VA  1200   45     240/ 19/ 23 1016.1R
YORKTOWN VA      1200   44 45  230/ 16/ 21 1016.2F
DOMINION TERM VA 1200   45     220/ 22/ 27 1017.0F
KIPTOPEKE VA     1200      47  220/ 19/ 24   N/A
CHES BAY BRIDGE  1200   44 41  200/ 22/ 26 1016.5F
CAPE HENRY VA    1200   43     210/ 13/ 20 1016.0F
CHESAPEAKE LGHT  1200   43     210/ 23/ 25 1017.9F
WILLOUBY STN VA  1200   46     220/ 24/ 29 1017.3F
S CRANEY ISL VA  1200          210/ 14/ 21 1017.3F
CAPE HENRY BUOY  1228      40                N/A     4/ 4   2/11
1ST LANDING BUOY 1300   44     220/ 17/ 23 1016.5F   2/ 3
OFFSHORE WE BUOY 1211      41                N/A     4/ 4   3/11
64NM E OF VA BCH 1250   49 48  220/ 25/ 31 1017.9F   6/ 5   3/11
DUCK PIER NC     1200   45 42  210/ 13/ 15 1019.0F
44056 DUCK FRF   1211      42                N/A     3/10   2/11
OREGON INLET NC  1200   48 44  200/ 17/ 19 1020.4F
HATTERAS NC      1200   54 50  220/ 12/ 17 1021.3F
CAPE LOOKOUT NC  1300   56     220/ 15/ 20 1020.9F
$$



USA.gov is the U.S. government's official web portal to all federal, state and local government web resources and services.